Location: Bassano
(45.7667°N, 11.7333°E)
Time: 13:05:33
(UTC+00:00)

STARLINK-1312 - Pass Details

Date: 07 June 2020
Orbit: 549 x 550 km, 53.0° (Epoch: 15 July)

Event Time Altitude Azimuth Distance (km) Brightness Sun altitude
Exits shadow 00:14:14 52° 235° (SW) 687 3.7 -20.0°
Maximum altitude 00:15:12 88° 148° (SSE) 555 3.5 -20.0°
Drops below altitude 10° 00:19:22 10° 59° (ENE) 1,827 6.9 -19.8°
Sets 00:21:36 0° 59° (ENE) 2,724 7.9 -19.7°
